Fort Leonard Wood, MO

8:43 AM CST on December 08, 2016 (GMT -0600)
Waynesville Regional At Forney Field

Weather History for KTBN - February, 2012

Change the Weather History Date:

Sunday, February 19, 2012

  Actual Average Record
Temperature  
Mean Temperature 39 °F -  
Max Temperature 48 °F 46 °F 71 °F (2004)
Min Temperature 30 °F 32 °F -3 °F (2015)
Degree Days  
Heating Degree Days 26    
Moisture  
Dew Point 25 °F    
Average Humidity 62    
Maximum Humidity 94    
Minimum Humidity 40    
Precipitation  
Precipitation 0.00 in - - ()
Sea Level Pressure  
Sea Level Pressure 30.10 in    
Wind  
Wind Speed 5 mph (NE)    
Max Wind Speed 9 mph    
Max Gust Speed -    
Visibility 10 miles    
Events      
Averages and records for this station are not official NWS values.
T = Trace of Precipitation, MM = Missing Value Source: NWS Daily Summary

Daily Weather History Graph

Daily Weather History Graph

Search for Another Location

Airport or City:

Trip Planner

Search our weather history database for the weather conditions in past years. The results will help you decide how hot, cold, wet, or windy it might be!

Date:

Astronomy

Feb. 19, 2012 Rise Set
Actual Time 6:53 AM CST 5:51 PM CST
Civil Twilight 6:27 AM CST 6:18 PM CST
Nautical Twilight 5:56 AM CST 6:48 PM CST
Astronomical Twilight 5:26 AM CST 7:19 PM CST
Moon 5:13 AM CST (2/19) 3:54 PM CST (2/19)
Length of Visible Light 11h 50m
Length of Day
10h 57m
Waning Crescent, 5% of the Moon is Illuminated
Feb 19
Waning Crescent
Feb 21
New
Feb 29
First Quarter
Mar 8
Full
Mar 14
Last Quarter

Hourly Weather History & Observations

Time (CST) Temp. Windchill Dew Point Humidity Pressure Visibility Wind Dir Wind Speed Gust Speed Precip Events Conditions
12:55 AM 37.6 °F 33.1 °F 28.9 °F 71% 30.08 in 10.0 mi NE 5.8 mph - N/A   Overcast
1:55 AM 36.7 °F 31.2 °F 29.3 °F 75% 30.09 in 10.0 mi NE 6.9 mph - N/A   Overcast
2:55 AM 35.8 °F 31.9 °F 29.3 °F 77% 30.07 in 10.0 mi ENE 4.6 mph - N/A   Overcast
3:55 AM 34.9 °F 30.8 °F 29.3 °F 80% 30.07 in 10.0 mi NE 4.6 mph - N/A   Overcast
4:55 AM 33.6 °F 29.4 °F 29.3 °F 84% 30.09 in 10.0 mi North 4.6 mph - N/A   Overcast
5:55 AM 31.3 °F 27.9 °F 28.4 °F 89% 30.09 in 10.0 mi NNE 3.5 mph - N/A   Partly Cloudy
6:55 AM 30.0 °F 25.2 °F 28.0 °F 92% 30.09 in 10.0 mi NE 4.6 mph - N/A   Mostly Cloudy
7:55 AM 30.2 °F 26.7 °F 28.6 °F 94% 30.11 in 10.0 mi NNW 3.5 mph - N/A   Clear
8:55 AM 34.2 °F 31.2 °F 28.2 °F 79% 30.12 in 10.0 mi Variable 3.5 mph - N/A   Clear
9:55 AM 38.1 °F 32.9 °F 27.1 °F 65% 30.13 in 10.0 mi ENE 6.9 mph - N/A   Clear
10:55 AM 41.0 °F 38.0 °F 26.1 °F 55% 30.14 in 10.0 mi Variable 4.6 mph - N/A   Clear
11:55 AM 43.9 °F 38.8 °F 24.3 °F 46% 30.11 in 10.0 mi NNE 9.2 mph - N/A   Clear
12:55 PM 46.2 °F 42.2 °F 23.0 °F 40% 30.09 in 10.0 mi North 8.1 mph - N/A   Clear
1:55 PM 47.5 °F - 24.6 °F 41% 30.08 in 10.0 mi NNE 5.8 mph - N/A   Clear
2:55 PM 48.7 °F - 25.0 °F 40% 30.07 in 10.0 mi Calm Calm - N/A   Clear
3:55 PM 48.0 °F - 24.4 °F 40% 30.08 in 10.0 mi Calm Calm - N/A   Clear
4:55 PM 47.1 °F - 23.9 °F 40% 30.09 in 10.0 mi ENE 4.6 mph - N/A   Clear
5:55 PM 44.6 °F 43.1 °F 23.0 °F 43% 30.09 in 10.0 mi NE 3.5 mph - N/A   Clear
6:55 PM 41.7 °F 38.8 °F 22.6 °F 47% 30.10 in 10.0 mi ENE 4.6 mph - N/A   Clear
7:55 PM 40.6 °F 37.5 °F 22.8 °F 49% 30.12 in 10.0 mi East 4.6 mph - N/A   Clear
8:55 PM 37.9 °F 32.7 °F 20.5 °F 49% 30.09 in 10.0 mi East 6.9 mph - N/A   Clear
9:55 PM 35.4 °F 29.0 °F 20.7 °F 55% 30.10 in 10.0 mi ESE 8.1 mph - N/A   Clear
10:55 PM 34.2 °F 26.8 °F 21.0 °F 59% 30.11 in 10.0 mi SE 9.2 mph - N/A   Clear
11:55 PM 31.1 °F 24.5 °F 21.2 °F 67% 30.13 in 10.0 mi SE 6.9 mph - N/A   Clear